Back to catalog

FENGYUN 1C DEB

AlivePO
NORAD 30716·DEBRIS·🇨🇳 China

Launched May 10, 1999 from Taiyuan Satellite Launch Center

Loading…

Next Passes (next 24 hours)

TLE

FreshSource: Space-Track

Epoch: Sep 14, 2026, 02:06 UTC

1 30716U 99025ASA 26257.08802686  .00025980  00000-0  23252-2 0  9992
2 30716  98.8555 117.6139 0014043 295.8409 216.8313 14.95749714 19180

Track FENGYUN 1C DEB in real time with AllMySat

Download on the App Store